TOPEX/POSEIDON

导读 | 星芒AI

TOPEX/POSEIDON 是一颗由美国 NASA 与法国 CNES 联合发射的海洋观测卫星,于1992年发射升空。该卫星主要用于测量全球海洋表面高度,以研究海平面变化、洋流和气候系统。其高精度雷达高度计极大地提高了海洋学研究的准确性,为全球气候模型提供了关键数据。TOPEX/POSEIDON 的成功为后续如 Jason 系列卫星奠定了基础,对理解全球变暖和海平面上升具有重要意义。

基本信息
目录编号:
22076
目录名称:
TOPEX/POSEIDON
国际标识:
1992-052A
轨道中心:
EARTH
卫星名称:
TOPEX/POSEIDON
卫星全名:
--
卫星状态:
在轨 (已飞行12137 天)
发射日期:
1992-08-10 UTC
国别 :
美国 (US)
星等 :
--
轨道信息
数据来源 国际轨道数据 AOE轨道数据
星历时间 2025-11-02T13:36:41+0800
17小时前
查看轨道信息
2025-11-02T09:00:00+0800
22小时前
查看轨道信息
半长轴 7715.241km 7715.243km
偏心率 0.0007828 0.0007847
轨道倾角 66.040° 66.040°
近地点辐角 271.446° 271.008°
升交点赤经 243.695° 244.093°
平近点角 193.183° 27.592°
近地点 1331.066km 1331.053km
远地点 1343.146km 1343.163km
周期 112.405分钟 112.405分钟
每日圈数 12.810867 12.810862
详细信息
使用方式:
暂无
2D轨道图
3D轨道图
轨道高度分析图
轨道倾角分析图
轨道综合分析图
查看轨道综合分析图